[[{"header":{"parameterUnit":"m.s-1","parameterCategory":1,"la1":30.2991,"la2":30.254,"lo1":-89.0895,"lo2":-89.0444,"dy":0.0017,"dx":0.0017,"nx":28,"ny":28,"refTime":"2025-03-12T03:00:00:Z","depth":0,"parameterNumber":2,"parameterNumberName":"U-component_of_WINDS"},"data":[0,0,0,0,0,0,0,0,0,0,0,0,0,0,0,0,0,0,0,0,0,0,0,0,0,0,0,0,0,0,0,0,0,0,0,0,0,0,0,0,0,0,0,0,0,0,0,0,0,0,0,0,0,0,0,0,0,0,1.9439,1.944,0,1.9576,1.9578,1.9579,1.9627,1.9627,1.9626,1.9626,1.9769,1.9773,1.9777,0,0,0,0,0,0,0,0,0,0,0,0,0,1.9219,1.9223,1.9439,1.944,1.9442,1.9576,1.9578,1.958,1.9627,1.9627,1.9626,1.9626,1.9767,1.9772,1.9778,0,0,0,0,0,0,0,0,0,0,0,0,0,1.9332,1.9224,1.9438,1.9482,1.9487,1.9575,1.9578,1.958,1.9628,1.9627,1.9626,1.9625,1.9766,1.9772,1.9778,1.9834,0,0,1.9798,1.9801,0,0,0,0,0,0,0,0,1.9325,1.934,1.9474,1.9479,1.9485,1.9584,1.9553,1.9665,1.9628,1.9574,1.9626,1.9625,1.9708,1.9719,1.9747,1.984,1.9847,1.9799,1.9802,1.9805,1.9807,0,0,0,0,0,0,0,1.9317,1.9334,1.9493,1.9476,1.9483,1.9495,1.951,1.9574,1.9644,1.9579,1.9583,1.9598,1.9711,1.974,1.975,1.9849,1.9798,1.9804,1.9808,1.9811,1.9995,1.9996,0,0,0,0,0,0,1.9302,1.9327,1.9489,1.9497,1.9402,1.95,1.9517,1.9553,1.9643,1.9656,1.9599,1.96,1.973,1.9743,1.9756,1.9826,1.9805,1.9811,1.9815,1.9994,1.9995,1.9996,0,0,0,0,0,0,1.9297,1.9316,1.9483,1.9413,1.9436,1.9504,1.9545,1.9556,1.9585,1.9658,1.9671,1.9616,1.973,1.9747,1.9814,1.9832,1.9814,1.982,1.9993,1.9994,1.9996,1.9968,0,0,0,0,0,0,1.9291,1.9314,1.9335,1.9413,1.9439,1.9538,1.9546,1.9559,1.9596,1.9599,1.9678,1.969,1.973,1.9804,1.982,1.984,1.9825,1.9991,1.9993,1.9995,1.9967,1.9968,1.9969,0,0,0,0,0,1.9283,1.9322,1.9336,1.9355,1.9467,1.9539,1.9554,1.9599,1.9597,1.962,1.9667,1.9688,1.9827,1.981,1.9829,1.9852,1.999,1.9993,1.9995,1.9967,1.9968,1.9969,0,0,0,0,0,0,1.9245,1.9333,1.9349,1.9416,1.9469,1.9547,1.9576,1.9598,1.9654,1.9655,1.9709,1.9726,1.9789,1.9827,1.9807,1.991,1.991,1.9916,1.9883,1.9884,1.9885,1.9874,1.983,0,0,0,0,0,1.9244,1.9295,1.937,1.9421,1.9447,1.9507,1.954,1.957,1.9628,1.9651,1.9703,1.976,1.9816,1.9852,1.9909,1.9973,1.9991,1.9998,1.9999,1.9999,2.0004,2.0041,2.0045,2.0004,2.0004,2.0004,0,0,1.9244,1.9298,1.9327,1.9415,1.946,1.9512,1.9526,1.958,1.9619,1.966,1.9726,1.9766,1.9833,1.9899,1.9931,1.9933,2.0019,2.0002,2.0002,2.0007,2.0044,2.0048,2.0051,2.0005,2.0005,2.0005,0,0,1.9269,1.9315,1.9363,1.9407,1.9476,1.9515,1.9526,1.9601,1.9629,1.9696,1.9728,1.9776,1.9872,1.9918,1.9954,1.9996,2.0018,2.0013,2.0017,2.0053,2.0056,2.0059,2.0074,2.0079,2.0018,2.0018,2.0018,0,1.9259,1.9338,1.9384,1.9437,1.9475,1.9513,1.9562,1.9604,1.9687,1.9712,1.9713,1.9835,1.9882,1.996,1.997,1.9998,2.0013,2.0004,2.0051,2.0055,2.0059,2.0074,2.0079,2.0017,2.0017,2.0017,2.0017,0,1.9323,1.9377,1.9407,1.9486,1.9527,1.9577,1.9632,1.9668,1.9695,1.9734,1.9802,1.9861,1.9929,1.995,1.9977,2.0031,2.003,2.0041,2.0042,2.0061,2.0076,2.0082,2.0015,2.0015,2.0016,2.0016,0,0,1.9328,1.9431,1.9442,1.9478,1.9555,1.9599,1.9651,1.9717,1.9747,1.9803,1.9849,1.9929,1.9939,1.998,2.0012,2.0044,2.0073,2.005,2.0053,2.0052,2.0137,2.0128,2.0134,2.0088,2.0089,2.009,2.0131,0,1.9363,1.9457,1.95,1.9576,1.9626,1.9664,1.9709,1.9762,1.9801,1.985,1.9893,1.9949,1.9958,1.9983,2.0016,2.0062,2.0091,2.006,2.0131,2.0133,2.0113,2.0142,2.0133,2.0169,2.0138,2.0139,2.0139,0,1.9416,1.9471,1.9551,1.9623,1.9646,1.9686,1.975,1.9796,1.9857,1.9883,1.9929,1.996,2.0017,2.0014,2.0094,2.0072,2.0104,2.0131,2.0134,2.0142,2.0137,2.0151,2.0182,2.0187,2.0149,2.0148,2.0148,0,1.9411,1.9506,1.9566,1.9595,1.9681,1.9708,1.9745,1.9805,1.9842,1.9899,1.9923,1.9986,2.002,2.0068,2.0116,2.0109,2.0191,2.0192,2.0214,2.0213,2.0229,2.0228,2.0265,2.025,2.025,2.025,2.025,0,1.9445,1.9492,1.9564,1.9601,1.9655,1.9705,1.9758,1.9798,1.9851,1.9897,1.9934,1.9976,2.0036,2.0086,2.0123,2.0183,2.0199,2.0222,2.0231,2.0218,2.0215,2.024,2.0238,2.0252,2.0251,2.0251,2.0251,0,1.9449,1.9499,1.9566,1.9641,1.9661,1.9698,1.9763,1.98,1.984,1.9898,1.9914,1.9978,2.0039,2.0091,2.0171,2.0196,2.0258,2.027,2.0237,2.0242,2.0261,2.0258,2.0316,2.0326,2.0304,2.0304,2.0304,0,1.9467,1.9504,1.9583,1.9616,1.9652,1.9704,1.9742,1.9793,1.9831,1.9903,1.9932,1.9995,2.0048,2.0144,2.0198,2.026,2.0273,2.0289,2.0282,2.0268,2.0273,2.027,2.0274,2.0289,2.0289,2.0289,2.0289,0,1.9494,1.9516,1.9569,1.9631,1.9674,1.9725,1.9777,1.9802,1.9863,1.9904,1.9966,2.0007,2.0089,2.0151,2.0219,2.0258,2.0284,2.029,2.0299,2.0286,2.0265,2.0276,2.0238,2.0289,2.0289,2.0289,2.0289,2.0289,1.9505,1.954,1.96,1.9658,1.9702,1.975,1.9789,1.9834,1.9886,1.9956,1.9983,2.0046,2.0107,2.02,2.024,2.0291,2.0294,2.0306,2.031,2.0312,2.0309,2.0257,2.0303,2.0303,2.0303,2.0303,2.0303,0,1.9533,1.9574,1.9627,1.9698,1.9743,1.9763,1.9821,1.9858,1.9913,1.9967,2.0019,2.009,2.0151,2.0209,2.0273,2.0303,2.0316,2.0318,2.0316,2.0325,2.0303,2.0289,2.0306,2.0306,2.0306,2.0306,2.0306,2.0306,1.9554,1.9613,1.9643,1.9725,1.9766,1.9828,1.986,1.9904,1.9947,2.0025,2.0076,2.0113,2.0169,2.0238,2.0295,2.031,2.0332,2.0331,2.035,2.0327,2.0326,2.0326,2.0313,2.0335,2.0335,2.0368,2.0368,2.0368]},{"header":{"parameterUnit":"m.s-1","parameterCategory":1,"la1":30.2991,"la2":30.254,"lo1":-89.0895,"lo2":-89.0444,"dy":0.0017,"dx":0.0017,"nx":28,"ny":28,"refTime":"2025-03-12T03:00:00:Z","depth":0,"parameterNumber":3,"parameterNumberName":"V-component_of_WINDS"},"data":[0,0,0,0,0,0,0,0,0,0,0,0,0,0,0,0,0,0,0,0,0,0,0,0,0,0,0,0,0,0,0,0,0,0,0,0,0,0,0,0,0,0,0,0,0,0,0,0,0,0,0,0,0,0,0,0,0,0,3.5955,3.5955,0,3.597,3.597,3.597,3.5965,3.5964,3.5964,3.5964,3.5977,3.5977,3.5978,0,0,0,0,0,0,0,0,0,0,0,0,0,3.5919,3.592,3.5955,3.5955,3.5955,3.597,3.597,3.597,3.5965,3.5964,3.5964,3.5964,3.5976,3.5977,3.5978,0,0,0,0,0,0,0,0,0,0,0,0,0,3.5934,3.592,3.5955,3.5954,3.5954,3.597,3.597,3.597,3.5965,3.5964,3.5964,3.5963,3.5976,3.5977,3.5978,3.5994,0,0,3.5981,3.5982,0,0,0,0,0,0,0,0,3.5934,3.5936,3.5954,3.5954,3.5955,3.5965,3.5962,3.5978,3.5965,3.5961,3.5964,3.5963,3.5973,3.5974,3.5978,3.5995,3.5995,3.5981,3.5982,3.5982,3.5983,0,0,0,0,0,0,0,3.5932,3.5935,3.5961,3.5954,3.5955,3.5953,3.5954,3.5965,3.5969,3.5961,3.5961,3.5963,3.5973,3.5977,3.5978,3.5995,3.5981,3.5982,3.5983,3.5983,3.6027,3.6028,0,0,0,0,0,0,3.5932,3.5934,3.596,3.5961,3.5943,3.5954,3.5956,3.5962,3.5969,3.597,3.5963,3.5963,3.5976,3.5977,3.5979,3.5999,3.5982,3.5983,3.5984,3.6026,3.6027,3.6028,0,0,0,0,0,0,3.5931,3.5934,3.596,3.5948,3.5951,3.5955,3.5962,3.5963,3.5967,3.5971,3.5971,3.5967,3.5975,3.5977,3.5991,3.5999,3.5984,3.5984,3.6026,3.6027,3.6027,3.6039,0,0,0,0,0,0,3.593,3.5934,3.594,3.5948,3.5951,3.5972,3.5963,3.5963,3.5969,3.5968,3.5974,3.5975,3.5975,3.5989,3.5992,3.6,3.5985,3.6025,3.6026,3.6027,3.6037,3.604,3.6042,0,0,0,0,0,3.5929,3.5942,3.5941,3.5944,3.596,3.5972,3.5974,3.5975,3.597,3.5976,3.5979,3.5975,3.5998,3.5991,3.5993,3.6002,3.6024,3.6026,3.6027,3.6037,3.6039,3.6042,0,0,0,0,0,0,3.5934,3.5943,3.5942,3.5958,3.5965,3.5972,3.598,3.5978,3.5985,3.5984,3.5984,3.5985,3.5999,3.6002,3.5994,3.6019,3.601,3.6012,3.6017,3.6019,3.6021,3.602,3.5986,0,0,0,0,0,3.5937,3.5948,3.5954,3.5968,3.5972,3.5975,3.5981,3.5981,3.5987,3.599,3.5993,3.5999,3.6008,3.6014,3.6022,3.6038,3.6039,3.6045,3.6047,3.6049,3.6051,3.606,3.6063,3.6032,3.6032,3.6032,0,0,3.5944,3.595,3.5956,3.5969,3.5975,3.5985,3.5977,3.5988,3.5996,3.5991,3.6005,3.6008,3.6014,3.6029,3.6036,3.6032,3.606,3.6051,3.6052,3.6053,3.6062,3.6065,3.6067,3.6033,3.6033,3.6033,0,0,3.5961,3.5967,3.5979,3.5985,3.5994,3.5996,3.5999,3.6007,3.6009,3.6022,3.6019,3.6028,3.6043,3.6048,3.6052,3.6073,3.607,3.6075,3.6086,3.6095,3.6098,3.61,3.6108,3.6111,3.6077,3.6077,3.6077,0,3.5968,3.5984,3.5986,3.5998,3.6004,3.6001,3.6014,3.6019,3.6029,3.6033,3.6029,3.6048,3.6052,3.6069,3.6074,3.6077,3.6081,3.6075,3.6098,3.61,3.6102,3.6109,3.6112,3.6078,3.6077,3.6077,3.6077,0,3.5992,3.6004,3.6013,3.6025,3.6031,3.6043,3.6047,3.6053,3.6053,3.6056,3.607,3.6075,3.6084,3.6088,3.6087,3.6105,3.6102,3.6098,3.6089,3.6106,3.6113,3.6116,3.6079,3.6078,3.6078,3.6078,0,0,3.6013,3.6026,3.603,3.6036,3.6045,3.6054,3.6066,3.6076,3.6083,3.609,3.61,3.6113,3.6109,3.6114,3.6114,3.6122,3.6139,3.6116,3.6116,3.6121,3.616,3.6164,3.6167,3.6137,3.6137,3.6138,3.6159,0,3.6031,3.6054,3.6056,3.6076,3.6087,3.6085,3.6096,3.6103,3.6106,3.6115,3.6117,3.6127,3.6121,3.6124,3.6132,3.6135,3.6147,3.6134,3.6146,3.6147,3.6145,3.6171,3.6175,3.6195,3.6162,3.6162,3.6163,0,3.6056,3.6066,3.6088,3.6097,3.6102,3.6111,3.6122,3.6131,3.6138,3.614,3.6146,3.6145,3.6157,3.6148,3.6165,3.6156,3.6161,3.6164,3.6164,3.6166,3.6156,3.6174,3.6201,3.6204,3.6167,3.6167,3.6166,0,3.607,3.6089,3.6104,3.6109,3.612,3.6127,3.6132,3.614,3.6146,3.6155,3.6159,3.6168,3.6174,3.6181,3.6182,3.6176,3.6199,3.619,3.6201,3.6201,3.6206,3.6206,3.6236,3.6209,3.6208,3.6208,3.6208,0,3.6091,3.6105,3.6111,3.6121,3.6136,3.6138,3.6152,3.6157,3.6163,3.6174,3.6172,3.6181,3.6182,3.6191,3.6192,3.6207,3.6209,3.621,3.621,3.6211,3.6211,3.6215,3.6213,3.6209,3.6209,3.6209,3.6209,0,3.611,3.6114,3.6131,3.6141,3.6144,3.6155,3.6163,3.6172,3.6175,3.6188,3.6191,3.6195,3.6207,3.6209,3.6221,3.6222,3.6239,3.6237,3.6237,3.6237,3.6248,3.6247,3.6282,3.6287,3.6256,3.6256,3.6256,0,3.6123,3.6134,3.6145,3.6153,3.6158,3.617,3.6177,3.618,3.6187,3.6197,3.6205,3.6216,3.6226,3.6243,3.6247,3.6257,3.6256,3.6268,3.6258,3.6258,3.6257,3.6257,3.6259,3.627,3.627,3.627,3.6271,0,3.6147,3.6149,3.616,3.6173,3.6182,3.6191,3.62,3.6206,3.6209,3.6218,3.623,3.6237,3.6251,3.6262,3.6272,3.6276,3.6274,3.6274,3.6277,3.6278,3.6278,3.6279,3.6243,3.6273,3.6273,3.6273,3.6272,3.6272,3.6164,3.6173,3.6184,3.6197,3.6204,3.6213,3.6222,3.6227,3.6238,3.625,3.6251,3.6264,3.6272,3.6286,3.629,3.6301,3.6297,3.6301,3.6302,3.6304,3.6305,3.6276,3.6302,3.6302,3.6302,3.6302,3.6302,0,3.6188,3.6195,3.6207,3.622,3.623,3.6229,3.6239,3.6247,3.6259,3.6267,3.6277,3.6291,3.6303,3.6308,3.6319,3.6326,3.6325,3.6329,3.6329,3.633,3.6307,3.6304,3.6329,3.6329,3.6329,3.6329,3.6329,3.6329,3.6202,3.6219,3.6223,3.6243,3.625,3.6264,3.627,3.6278,3.6285,3.6302,3.6312,3.6315,3.6322,3.6334,3.6344,3.6345,3.635,3.6354,3.6355,3.6334,3.6331,3.6328,3.6325,3.6355,3.6355,3.6376,3.6376,3.6377]}]]